Temp
64 63 63 63 63 63 63 63 62 63 62 62 62 62 62 62 63 65 74 83 80 80 81 83 83 82 80 73 75 74 62 61 62 64 65 70 68 76 77 74 77 77 72 73 75
63 62 62 62 62 63 63 62 62 62 62 61 61 62 62 62 65 70 83 82 80 80 82 82 79 79 73 72 71 66 62 66 74 73 69 72 73 73 71 72 71 70 74 75 75
62 62 62 62 62 62 62 62 62 62 61 61 61 62 62 61 66 76 82 80 79 80 86 85 81 78 72 73 73 68 67 72 76 76 78 73 72 74 71 65 70 67 69 73 73
61 61 62 62 62 62 62 61 61 61 60 60 61 62 62 60 65 79 81 80 80 84 85 81 76 72 69 70 74 70 75 75 74 76 75 73 73 71 72 71 76 74 74 73 72
61 61 61 61 61 61 61 61 60 60 60 61 62 62 59 65 74 77 80 80 80 82 81 78 74 71 69 70 74 70 73 77 78 78 74 77 72 72 71 76 77 77 74 73 73
60 60 60 60 60 61 60 60 60 59 60 61 62 63 60 66 80 79 77 77 81 81 80 80 78 79 74 72 71 74 74 74 77 78 77 72 71 72 72 77 75 75 73 73 74
60 60 60 60 60 60 60 59 59 58 61 62 63 65 65 73 82 78 78 78 80 81 80 82 82 77 75 72 80 74 70 73 73 73 72 75 67 66 74 76 74 74 74 75 75
59 59 59 60 60 60 59 58 58 60 62 62 64 60 65 80 77 80 76 77 82 81 81 82 80 76 75 77 74 70 70 63 72 72 74 72 59 70 73 73 72 74 76 76 74
59 59 59 59 59 59 58 58 60 62 64 64 56 58 65 78 77 79 79 80 82 81 80 91 79 71 72 65 62 64 56 62 67 74 74 70 61 72 72 72 72 73 74 76 74
59 59 59 59 58 58 57 59 63 62 64 69 72 62 72 75 78 80 77 82 80 78 78 77 69 65 62 60 54 57 57 61 63 70 70 67 66 71 73 71 72 73 73 73 74
59 58 58 58 58 57 56 57 64 63 60 67 65 70 76 79 82 76 79 80 77 76 65 68 64 60 64 65 65 64 60 62 66 70 66 64 65 69 73 71 71 70 72 72 74
58 58 58 58 57 56 54 64 67 69 62 70 71 72 77 78 73 75 81 72 69 64 65 65 59 69 71 70 67 64 60 61 70 71 68 62 64 68 73 73 74 74 73 74 73
58 58 57 57 56 55 62 67 71 67 60 69 70 71 74 77 74 75 79 71 66 63 62 59 66 74 72 68 64 58 60 60 64 67 67 65 63 64 72 75 76 75 75 75 75
57 57 57 55 59 61 67 68 67 68 56 64 64 75 74 74 69 80 78 76 65 66 64 62 70 71 67 67 65 52 68 68 67 61 54 64 53 62 65 69 74 75 72 74 74
57 57 56 55 57 65 69 65 65 71 48 69 67 77 71 73 73 72 78 74 66 65 64 64 66 64 64 68 68 65 69 66 64 56 53 57 54 61 65 62 67 74 76 75 76
56 56 56 53 51 64 66 64 70 58 50 65 70 66 66 67 70 72 73 76 72 65 61 65 70 69 71 72 71 72 66 60 55 53 46 53 55 56 60 65 70 74 76 77 77
55 54 52 60 67 64 64 69 56 50 65 63 60 62 60 61 65 69 67 63 60 52 51 60 64 68 73 65 68 64 55 47 47 45 47 48 52 58 67 71 73 74 77 79 79
54 53 53 59 58 62 67 63 45 60 59 66 63 59 62 65 63 64 62 60 61 59 52 53 55 64 70 70 64 59 58 49 43 43 49 50 50 62 70 73 74 78 79 80 78
53 52 54 62 61 61 64 50 53 57 65 65 62 57 55 61 62 61 60 59 64 64 57 50 55 68 70 67 71 57 54 56 47 39 45 49 56 68 70 71 72 72 74 76 77
49 56 64 67 64 65 59 49 53 63 66 63 55 58 53 57 56 56 59 64 65 66 62 58 53 60 70 69 67 60 65 54 48 43 40 46 48 56 67 69 69 69 72 73 76
55 62 68 64 65 61 52 50 58 67 66 61 57 55 56 57 59 55 57 64 66 63 63 56 55 60 65 59 60 58 53 51 51 47 45 42 50 60 64 70 71 70 72 72 74
51 57 67 66 58 45 50 53 59 64 65 64 62 60 56 58 55 55 59 61 68 65 60 57 52 50 58 62 65 61 60 55 51 47 42 44 51 68 68 71 70 71 72 75 75
49 49 62 65 50 46 51 57 60 62 62 62 61 61 60 55 51 57 61 66 68 64 56 59 51 46 54 56 60 57 58 53 49 47 44 47 55 67 65 66 69 69 70 72 72
50 53 54 53 46 48 46 50 56 64 60 60 58 60 58 56 55 53 57 65 66 65 67 63 49 52 48 53 55 56 59 56 54 47 49 49 59 66 65 67 71 70 69 70 71
46 42 45 44 48 45 45 49 51 53 58 59 55 55 51 45 49 50 56 59 64 64 60 57 51 47 53 58 56 58 60 60 55 56 57 64 54 63 64 67 68 69 69 70 70
43 43 42 40 42 44 44 44 50 52 51 52 52 58 53 47 49 49 51 49 53 59 55 53 50 46 49 59 57 57 61 61 59 58 57 58 57 60 64 63 65 67 67 69 69
45 45 44 41 40 41 42 45 51 51 53 58 56 53 51 52 55 56 56 56 54 52 53 51 48 46 43 51 54 51 56 59 59 53 51 53 55 58 59 62 64 66 67 70 71
MSLP
1013.83 1013.59 1013.34 1013.02 1012.69 1012.32 1011.97 1011.77 1011.58 1011.50 1011.31 1010.89 1010.63 1010.37 1010.39 1009.96 1008.76 1008.70 1007.73 1005.88 1005.96 1006.40 1007.03 1007.17 1007.28 1007.21 1007.24 1007.78 1008.12 1008.39 1008.73 1009.00 1009.01 1009.25 1009.28 1009.48 1009.98 1010.18 1010.19 1010.54 1010.95 1011.35 1012.06 1012.64 1013.52
1013.93 1013.58 1013.25 1012.86 1012.50 1012.20 1011.97 1011.66 1011.43 1011.33 1011.26 1010.91 1010.52 1010.25 1010.12 1010.07 1009.16 1007.82 1005.64 1005.48 1005.95 1006.58 1007.08 1007.00 1007.09 1006.85 1007.21 1007.68 1007.87 1008.05 1008.34 1007.98 1007.65 1007.79 1008.56 1009.39 1009.67 1010.13 1010.50 1010.92 1011.32 1011.97 1012.43 1012.99 1013.71
1013.85 1013.49 1013.17 1012.77 1012.32 1012.05 1011.80 1011.55 1011.24 1011.22 1011.13 1010.94 1010.50 1010.05 1009.95 1009.96 1009.16 1006.57 1005.37 1005.72 1005.88 1006.51 1006.73 1006.93 1006.81 1006.73 1007.21 1007.56 1007.79 1007.84 1007.74 1007.59 1007.10 1007.01 1007.62 1009.08 1009.78 1010.03 1010.58 1011.20 1011.16 1011.76 1012.67 1013.33 1013.88
1013.78 1013.33 1013.02 1012.68 1012.17 1011.86 1011.63 1011.36 1011.15 1011.02 1011.00 1010.79 1010.52 1010.03 1009.71 1009.64 1008.42 1006.20 1005.80 1005.98 1005.92 1005.98 1006.10 1006.37 1006.66 1006.98 1007.47 1007.65 1007.57 1007.59 1007.19 1007.08 1007.00 1007.20 1007.92 1008.93 1009.60 1010.13 1010.33 1010.60 1010.88 1011.70 1012.44 1013.32 1013.85
1013.73 1013.31 1012.89 1012.40 1012.06 1011.76 1011.57 1011.25 1010.99 1010.92 1010.82 1010.59 1010.41 1010.09 1009.68 1008.79 1007.17 1006.41 1006.15 1006.38 1006.31 1006.42 1006.60 1006.89 1007.16 1007.46 1007.45 1007.59 1007.46 1007.40 1007.03 1006.52 1006.64 1007.25 1008.13 1008.77 1009.54 1010.01 1010.39 1010.58 1011.25 1011.86 1012.65 1013.19 1013.61
1013.70 1013.24 1012.70 1012.25 1011.98 1011.71 1011.51 1011.17 1010.85 1010.77 1010.62 1010.37 1010.24 1010.10 1009.62 1008.00 1006.44 1006.48 1006.63 1006.95 1006.72 1006.76 1006.69 1006.74 1006.70 1006.88 1007.20 1007.49 1007.59 1007.60 1007.46 1007.26 1007.28 1007.72 1008.31 1009.00 1009.87 1010.11 1010.63 1010.84 1011.46 1012.11 1012.51 1012.92 1013.29
1013.56 1013.04 1012.57 1012.17 1011.85 1011.53 1011.35 1011.08 1010.81 1010.59 1010.44 1010.18 1010.12 1009.93 1008.98 1007.15 1006.43 1006.76 1006.96 1007.08 1006.72 1006.54 1006.67 1006.34 1006.48 1006.76 1007.10 1007.37 1007.52 1007.62 1007.94 1007.84 1008.13 1008.22 1008.81 1009.12 1010.15 1010.27 1010.50 1010.89 1011.57 1011.98 1012.39 1012.72 1012.86
1013.47 1012.86 1012.41 1012.06 1011.59 1011.28 1011.07 1010.84 1010.69 1010.37 1010.31 1010.24 1010.09 1009.74 1008.01 1006.35 1006.46 1006.90 1007.00 1007.03 1006.88 1006.95 1006.86 1006.62 1006.63 1006.98 1007.48 1007.84 1008.07 1008.34 1008.22 1008.69 1008.54 1008.30 1008.89 1009.17 1010.02 1010.28 1010.57 1010.81 1011.54 1011.91 1012.12 1012.40 1012.72
1013.21 1012.62 1012.13 1011.74 1011.39 1011.00 1010.76 1010.48 1010.33 1010.19 1010.06 1010.16 1010.08 1009.47 1007.44 1006.36 1006.36 1006.09 1006.43 1006.58 1006.57 1006.49 1006.27 1006.32 1006.49 1007.44 1007.98 1008.57 1009.29 1009.54 1009.42 1009.29 1008.70 1008.42 1008.74 1009.30 1009.98 1010.11 1010.59 1011.05 1011.20 1011.49 1011.67 1011.86 1012.16
1013.16 1012.60 1012.03 1011.57 1011.15 1010.70 1010.40 1010.25 1010.22 1010.14 1010.12 1010.08 1009.59 1009.23 1007.13 1006.11 1005.77 1005.82 1006.19 1006.27 1006.35 1006.38 1006.61 1006.81 1007.53 1008.14 1008.89 1009.31 1009.70 1009.91 1010.01 1009.63 1009.21 1008.81 1008.86 1009.22 1009.58 1009.98 1010.36 1010.76 1010.91 1011.14 1011.33 1011.48 1011.57
1012.87 1012.39 1011.82 1011.17 1010.77 1010.50 1010.39 1010.46 1010.51 1010.11 1009.68 1008.68 1008.19 1007.58 1006.50 1005.76 1005.51 1005.86 1005.93 1006.13 1006.29 1006.61 1007.19 1007.60 1008.31 1008.57 1008.79 1008.76 1008.99 1009.54 1009.85 1009.68 1009.14 1009.02 1009.30 1009.39 1009.57 1009.62 1009.86 1010.52 1010.64 1010.82 1010.95 1011.04 1011.01
1013.06 1012.22 1011.50 1010.85 1010.39 1009.88 1010.00 1009.42 1008.58 1008.49 1008.45 1007.63 1007.43 1007.10 1006.35 1005.82 1005.81 1005.85 1005.90 1006.39 1006.75 1007.31 1007.57 1008.09 1008.09 1008.17 1008.18 1008.37 1008.89 1009.24 1009.56 1009.29 1009.07 1009.01 1009.42 1009.45 1009.40 1009.28 1009.39 1009.23 1009.55 1009.83 1010.20 1010.34 1010.68
1012.48 1011.93 1011.26 1010.65 1010.26 1010.12 1009.47 1008.38 1007.81 1007.93 1008.32 1007.09 1006.71 1006.35 1005.77 1005.86 1005.78 1005.75 1006.00 1006.41 1006.96 1007.66 1007.98 1008.31 1007.97 1007.53 1007.81 1007.94 1008.60 1008.90 1009.10 1009.09 1009.14 1009.29 1009.51 1009.65 1009.42 1009.02 1008.71 1008.87 1009.12 1009.19 1009.27 1009.62 1009.94
1012.29 1011.72 1011.08 1010.43 1010.47 1009.66 1008.77 1007.84 1007.68 1007.74 1007.99 1006.77 1006.11 1005.16 1005.36 1005.43 1005.70 1005.36 1005.66 1006.25 1006.96 1007.53 1008.29 1008.30 1007.63 1007.47 1007.50 1007.67 1008.09 1008.42 1008.05 1008.77 1009.29 1010.03 1010.47 1010.24 1010.10 1008.90 1008.37 1008.23 1008.25 1008.35 1008.59 1008.77 1009.17
1011.89 1011.50 1011.04 1010.85 1010.25 1009.23 1008.29 1007.82 1007.59 1007.71 1007.55 1006.21 1005.38 1004.57 1004.99 1005.34 1005.53 1005.62 1005.54 1005.92 1006.84 1007.48 1008.16 1007.74 1007.44 1007.22 1007.27 1007.08 1007.44 1007.72 1007.80 1008.90 1010.15 1010.94 1011.27 1011.07 1010.92 1008.76 1008.24 1008.20 1007.37 1007.11 1007.38 1007.84 1008.21
1011.45 1011.09 1010.82 1010.54 1010.26 1008.14 1007.67 1007.62 1007.70 1008.23 1006.96 1005.73 1004.96 1004.88 1005.21 1005.32 1005.50 1005.74 1005.77 1005.97 1006.69 1007.41 1007.88 1007.80 1007.10 1006.83 1006.39 1006.42 1006.79 1007.51 1008.52 1010.04 1011.19 1011.92 1012.50 1011.28 1010.99 1008.99 1007.93 1006.28 1005.90 1006.46 1006.52 1006.79 1007.32
1011.08 1010.40 1010.56 1009.70 1008.89 1007.86 1007.69 1007.82 1008.75 1008.24 1006.96 1006.26 1005.70 1005.47 1005.57 1005.85 1005.90 1005.98 1006.40 1006.82 1007.42 1008.06 1008.36 1007.86 1007.15 1006.32 1006.00 1006.53 1006.94 1007.83 1009.67 1011.45 1012.71 1013.20 1012.68 1011.64 1011.13 1008.56 1005.92 1005.41 1005.01 1004.91 1005.15 1005.61 1006.21
1010.21 1009.47 1009.46 1009.03 1008.30 1008.11 1008.05 1008.79 1009.05 1008.11 1007.34 1006.48 1006.24 1006.19 1006.26 1006.18 1006.21 1006.49 1006.90 1007.55 1007.78 1008.26 1008.84 1008.30 1007.23 1006.36 1005.83 1005.99 1006.89 1008.05 1009.38 1011.23 1012.60 1013.68 1012.87 1011.94 1010.10 1007.05 1005.17 1004.50 1004.15 1003.75 1004.01 1005.08 1005.71
1009.55 1009.29 1009.36 1008.27 1008.04 1008.50 1008.87 1009.55 1008.94 1008.42 1007.64 1007.15 1006.65 1006.60 1006.68 1006.48 1006.53 1006.81 1007.28 1007.58 1007.60 1007.93 1008.57 1008.57 1007.71 1006.26 1005.85 1005.79 1006.22 1008.25 1009.56 1010.38 1012.08 1013.55 1013.26 1011.34 1009.29 1006.50 1004.74 1004.29 1003.96 1003.72 1004.10 1004.51 1005.02
1010.13 1009.55 1008.88 1007.95 1007.93 1008.32 1009.19 1009.84 1009.40 1008.51 1007.74 1007.39 1007.26 1007.04 1007.11 1007.00 1007.15 1007.41 1007.42 1007.13 1007.19 1007.30 1007.36 1008.54 1008.29 1007.07 1006.29 1006.18 1006.85 1007.37 1008.79 1010.52 1012.05 1013.25 1013.41 1011.41 1009.92 1007.66 1005.42 1004.51 1004.31 1004.32 1004.38 1004.56 1004.69
1010.15 1009.94 1008.73 1008.13 1008.16 1009.15 1010.45 1010.42 1009.57 1008.45 1008.04 1007.85 1007.74 1007.72 1007.74 1007.61 1007.55 1007.66 1007.72 1007.50 1007.30 1007.47 1007.72 1008.46 1008.89 1007.77 1007.12 1007.14 1007.40 1008.27 1009.10 1010.56 1011.84 1012.63 1012.74 1011.93 1009.62 1006.45 1005.41 1004.70 1004.38 1004.25 1004.19 1004.32 1004.36
1010.94 1010.72 1008.90 1008.35 1009.57 1011.54 1011.55 1010.87 1009.93 1009.13 1008.55 1008.38 1008.17 1008.36 1008.36 1008.30 1008.26 1008.17 1008.06 1008.16 1007.67 1007.60 1008.23 1008.66 1009.28 1009.20 1008.18 1007.24 1007.31 1007.81 1008.57 1009.99 1011.51 1012.50 1012.45 1011.35 1007.92 1005.38 1004.90 1004.40 1004.30 1003.92 1003.95 1003.74 1004.06
1012.67 1012.13 1009.53 1009.19 1011.49 1012.72 1012.20 1011.39 1010.62 1010.08 1009.78 1009.41 1009.37 1009.25 1009.08 1009.13 1009.24 1008.96 1008.76 1008.68 1008.30 1008.45 1008.80 1008.95 1009.79 1009.95 1008.83 1008.18 1007.66 1007.91 1008.23 1008.99 1010.16 1010.71 1011.16 1010.66 1007.52 1005.37 1004.99 1004.85 1004.30 1004.00 1003.69 1003.54 1003.77
1013.60 1013.68 1012.67 1012.40 1013.68 1013.57 1013.43 1012.74 1011.69 1010.94 1010.78 1010.52 1010.42 1010.03 1010.04 1010.07 1010.02 1010.04 1009.76 1009.39 1009.17 1009.25 1009.30 1009.31 1010.32 1010.39 1010.11 1009.38 1008.91 1008.71 1008.41 1008.87 1009.09 1010.19 1009.94 1008.93 1007.12 1005.83 1005.23 1005.04 1004.11 1003.54 1003.55 1003.53 1003.70
1014.83 1016.63 1016.40 1015.72 1015.38 1014.93 1014.36 1013.79 1013.13 1012.56 1012.03 1011.47 1011.45 1011.49 1011.44 1011.35 1011.23 1011.13 1010.77 1010.34 1010.01 1009.99 1010.01 1010.41 1010.92 1010.86 1010.35 1009.72 1009.33 1008.79 1008.39 1008.41 1009.04 1008.43 1008.61 1007.49 1007.29 1005.94 1005.28 1005.06 1004.33 1003.70 1003.32 1003.73 1003.90
1016.88 1017.59 1017.19 1017.07 1016.51 1015.82 1015.51 1015.31 1014.46 1014.00 1013.38 1012.80 1012.63 1012.19 1011.94 1012.08 1012.24 1012.17 1011.90 1011.80 1011.32 1011.06 1011.16 1011.54 1011.65 1011.58 1010.91 1009.66 1009.24 1008.63 1008.10 1007.97 1008.02 1008.07 1007.92 1007.50 1007.09 1006.39 1005.60 1005.10 1004.37 1004.06 1003.97 1003.58 1003.74
1018.05 1018.07 1017.87 1018.33 1017.80 1017.27 1017.06 1016.40 1015.61 1015.03 1014.18 1013.64 1013.43 1013.07 1012.71 1012.86 1012.88 1012.48 1012.43 1012.18 1011.88 1011.93 1012.15 1012.40 1012.46 1012.65 1011.85 1010.64 1009.61 1008.66 1007.88 1007.81 1007.68 1008.20 1008.77 1008.38 1007.88 1007.53 1006.35 1005.69 1004.90 1004.31 1003.93 1003.46 1003.20
Wind_Speed
15 14 13 13 12 12 12 12 11 11 11 13 14 13 11 12 15 2 5 8 6 9 1 3 3 2 3 4 1 2 5 3 3 4 4 8 6 4 3 8 2 2 6 8 13
14 14 14 14 13 12 12 12 11 11 11 12 13 13 11 10 4 4 7 4 5 11 4 6 5 0 4 2 2 4 4 1 7 7 6 7 11 5 5 4 3 8 13 15 13
15 15 15 15 14 13 12 12 12 10 10 11 12 13 11 7 1 4 3 5 7 8 3 5 4 3 4 2 3 1 1 4 6 5 14 9 5 2 13 2 7 13 14 13 11
15 15 15 14 14 13 12 12 11 10 9 10 10 11 12 2 4 2 7 8 4 4 4 7 7 5 4 4 0 4 2 3 1 7 8 12 6 6 5 5 8 13 16 12 12
16 16 16 15 14 13 12 11 10 9 9 10 8 8 4 1 2 2 9 7 2 2 0 3 3 1 2 1 1 5 8 5 9 10 8 8 5 4 3 10 12 13 15 14 13
17 17 17 16 15 13 12 11 10 9 9 8 6 7 1 2 3 8 9 5 3 3 3 4 3 4 1 1 3 3 6 4 8 9 6 9 4 3 1 9 14 15 15 15 15
19 18 18 17 16 14 12 10 10 10 8 7 5 3 1 2 4 8 9 6 4 3 3 3 2 2 2 2 2 3 4 6 7 2 5 8 1 2 7 9 13 14 13 12 14
19 19 18 17 17 15 12 10 9 10 6 4 3 1 5 2 6 7 4 3 4 5 4 3 2 4 3 1 6 4 4 4 1 1 4 5 5 4 8 12 9 10 11 12 10
20 19 19 18 16 15 11 10 8 5 2 4 0 1 4 2 2 4 5 4 5 3 5 4 2 3 4 4 4 6 1 0 4 3 5 4 4 7 8 11 13 11 9 9 9
19 19 19 17 15 13 12 2 5 4 1 3 2 2 1 2 3 3 3 1 3 2 2 4 5 3 3 4 3 3 2 3 4 4 5 5 4 7 12 11 15 13 11 9 9
22 20 19 18 15 12 3 4 3 2 1 6 3 2 4 2 3 2 3 4 2 6 2 3 4 5 7 6 3 5 4 5 4 3 2 4 3 10 15 12 12 10 10 10 13
19 20 20 19 19 0 3 3 4 4 5 4 2 5 5 2 2 2 4 4 3 2 1 6 4 7 5 5 5 3 3 5 3 3 4 2 6 7 14 19 17 15 12 13 8
21 20 20 19 12 1 1 4 3 3 2 6 5 4 5 7 5 6 7 3 4 4 3 5 3 5 3 5 3 3 6 5 4 2 3 2 6 5 9 12 11 11 8 9 12
21 20 19 21 3 2 3 0 4 5 5 4 2 5 4 4 1 2 5 6 1 8 7 5 4 3 0 5 6 3 7 3 5 4 2 1 5 4 6 13 16 16 10 11 11
23 19 16 7 3 1 2 5 3 4 4 2 3 1 0 7 4 1 3 5 6 5 6 8 4 2 4 4 5 6 1 6 4 5 2 2 2 8 3 7 17 19 17 13 14
24 19 13 2 1 6 5 4 4 7 2 1 2 3 4 3 2 3 3 4 3 4 0 6 3 3 7 3 6 4 7 9 6 3 2 5 6 8 6 10 9 14 16 15 15
26 20 5 1 3 5 3 5 6 3 4 4 1 1 3 2 1 3 5 4 4 3 3 3 5 4 3 2 4 6 7 3 4 4 7 2 3 12 9 8 9 17 19 17 16
27 15 8 4 4 7 4 7 2 2 2 3 3 2 6 5 3 2 4 4 3 5 2 3 8 6 4 9 9 5 9 7 5 4 5 3 6 10 8 7 11 9 16 12 14
19 2 1 4 4 2 7 4 6 3 2 5 3 3 1 1 0 3 6 5 8 9 7 4 6 5 4 2 7 3 3 4 8 2 3 4 9 11 6 6 4 2 7 13 14
2 2 3 6 3 4 7 4 2 3 3 2 2 1 2 0 2 2 5 3 4 10 4 5 4 2 6 3 5 3 6 4 4 2 5 6 5 8 10 7 3 3 8 8 9
3 5 4 6 2 7 4 4 2 4 1 0 1 1 1 2 5 5 3 1 1 2 4 6 5 9 5 1 6 2 1 7 5 5 7 2 8 9 10 7 7 8 10 9 11
2 4 4 3 6 2 2 2 4 4 5 5 3 3 2 3 2 2 3 5 9 2 5 3 5 5 12 2 2 5 8 5 7 6 2 4 11 6 9 6 5 10 10 10 9
4 2 4 3 4 3 5 3 3 8 6 7 6 4 4 2 1 1 4 1 10 7 2 4 1 3 11 7 4 3 5 6 4 4 8 7 10 2 5 8 9 11 9 9 8
4 3 6 7 2 5 3 3 5 7 4 4 3 5 6 6 4 3 5 3 7 5 6 4 3 7 8 7 2 5 4 4 6 5 6 8 11 12 7 9 13 10 7 8 8
5 1 2 2 4 3 2 2 2 6 5 7 5 5 2 1 2 2 5 6 5 9 5 4 3 2 6 8 4 6 9 7 9 8 10 12 11 12 7 9 8 10 5 6 7
4 3 5 2 4 4 5 2 2 4 2 2 3 7 3 2 2 3 1 2 5 6 5 4 2 1 4 5 4 6 8 9 8 5 9 6 7 2 9 8 5 8 6 9 8
2 2 3 4 3 3 2 3 4 4 2 1 3 2 3 2 4 8 6 6 4 3 2 0 2 3 5 4 8 6 3 6 2 5 2 5 3 8 8 11 5 8 8 11 10
Wind_Direction
350 347 342 335 334 332 329 325 321 320 318 316 318 323 329 327 310 224 235 225 171 157 196 112 173 197 190 75 137 124 66 93 130 208 173 146 125 211 76 131 118 107 124 131 127
348 347 346 338 334 332 326 319 316 315 314 311 314 318 323 336 304 276 261 201 205 145 186 198 198 6 63 34 13 81 81 332 172 172 161 142 137 165 111 144 62 78 100 125 134
340 341 341 338 338 331 323 316 310 311 308 306 309 313 319 322 195 249 252 166 156 174 194 158 113 34 76 359 21 343 97 4 337 137 137 132 127 120 133 195 186 155 143 145 144
343 340 341 341 339 331 324 314 308 306 303 300 303 311 316 280 112 261 178 150 158 329 18 29 21 36 50 12 25 359 258 181 150 108 115 141 122 117 156 216 144 149 150 149 162
342 339 336 337 340 337 323 312 307 301 298 291 300 314 322 344 281 155 134 127 116 55 227 127 107 178 25 253 21 22 329 341 112 102 104 110 116 129 254 121 125 141 151 166 178
340 338 336 336 332 333 324 311 302 296 290 289 299 312 305 106 84 140 129 134 202 176 257 230 237 207 2 129 72 329 341 352 69 98 83 114 129 79 152 130 136 156 171 176 185
338 335 334 332 328 328 320 308 293 289 287 285 295 290 48 170 105 142 145 181 211 193 224 259 349 165 156 40 275 49 46 21 28 100 110 108 16 235 165 151 155 172 185 186 191
335 333 330 328 328 326 320 305 287 285 278 255 282 297 233 345 133 139 185 166 226 233 245 237 264 121 62 153 16 29 75 43 7 56 133 95 260 166 178 154 190 193 189 190 197
333 331 329 328 326 323 314 305 280 254 227 186 36 27 270 146 196 183 165 163 172 237 282 287 60 80 39 73 29 25 271 290 310 194 132 145 236 180 174 182 192 208 213 206 199
332 328 326 325 326 324 317 240 159 121 259 223 251 30 321 242 201 174 169 124 120 257 75 57 51 60 58 91 211 176 246 270 233 247 196 167 233 178 184 185 205 210 212 214 212
329 328 326 325 327 307 311 106 22 20 90 194 185 238 298 319 118 180 155 106 59 39 125 13 89 199 223 217 154 124 153 209 236 218 263 215 254 199 190 203 212 213 217 215 213
328 327 328 328 333 100 165 135 166 170 322 227 238 284 271 275 34 120 126 117 105 165 18 18 252 211 215 232 240 252 255 244 246 177 163 145 266 214 195 212 210 209 215 220 213
330 330 329 330 338 265 182 221 108 88 117 296 191 188 218 139 195 218 128 141 132 129 176 161 280 91 203 270 210 233 204 200 194 92 53 7 273 194 223 212 217 228 219 209 205
328 329 329 327 321 269 258 173 318 172 63 276 269 278 128 146 236 174 169 135 76 189 159 223 268 203 325 272 131 237 200 167 162 102 234 343 279 264 214 216 216 218 210 201 200
324 326 325 328 284 193 136 318 119 59 63 163 195 110 216 142 159 243 215 58 171 182 115 243 176 126 331 225 170 237 141 171 100 92 40 301 61 271 138 221 226 216 216 198 196
322 323 324 123 237 250 326 336 54 41 105 107 115 138 103 39 51 74 124 58 142 158 212 236 295 239 209 181 182 112 59 40 49 79 360 233 154 280 192 217 231 222 218 206 194
324 314 279 291 222 328 313 55 43 121 322 327 30 122 136 163 264 121 146 197 178 97 299 309 228 249 176 152 8 77 63 335 352 6 227 282 129 239 269 243 224 210 214 203 195
323 316 183 229 304 351 54 57 162 171 301 337 50 71 173 159 231 111 103 224 223 97 101 168 319 183 184 185 177 176 152 159 219 215 263 331 248 251 234 254 255 244 214 195 191
321 340 121 275 219 121 74 88 190 197 310 335 339 119 203 26 54 126 185 216 206 165 174 145 279 286 206 161 132 176 170 171 105 14 31 237 291 305 300 294 7 131 155 182 187
30 29 9 324 122 69 78 202 168 234 298 40 82 54 112 241 117 153 196 231 242 186 136 200 309 300 306 98 36 143 154 70 12 163 282 295 287 241 294 305 310 200 205 197 189
42 59 277 342 55 49 128 210 266 268 304 108 147 14 339 282 178 178 211 354 244 68 127 141 129 265 31 188 201 59 15 53 117 131 175 260 270 221 251 258 260 242 225 209 195
59 63 318 10 52 27 93 333 338 337 1 26 105 86 9 14 334 263 169 7 334 155 137 208 153 233 232 295 170 182 195 163 132 237 223 162 264 231 230 255 266 258 235 221 200
70 280 319 68 102 4 319 346 3 19 13 17 41 24 33 44 94 17 29 351 22 40 86 186 355 7 344 358 12 227 196 142 109 81 195 165 257 336 274 286 269 270 232 220 198
73 55 344 43 29 107 29 359 359 7 48 3 31 64 26 29 20 352 8 346 337 12 15 102 125 163 190 217 197 283 260 221 146 132 204 216 260 280 268 284 287 281 243 221 195
25 57 172 9 1 42 38 21 25 9 6 13 32 53 310 307 31 16 2 342 346 355 19 83 205 222 238 251 215 242 262 229 201 220 190 241 210 245 271 268 267 268 235 202 200
77 42 4 51 323 15 358 29 62 339 322 2 55 320 316 204 32 214 207 226 250 330 23 4 265 151 277 267 284 260 255 263 230 226 262 259 258 323 292 277 274 255 230 206 214
353 19 98 323 3 84 24 343 28 2 294 69 325 276 291 34 295 244 225 267 259 197 245 329 118 51 263 338 311 316 268 258 201 72 320 215 301 331 311 315 312 284 226 220 207